owner,sensor,date,latitude,longitude,vertical_datum,mass_concentration_of_oxygen_in_sea_water,qcFlag 
DISL,ioos:station:DISL:KATA:1,2014-05-01T00:00:00Z,30.2583,-88.2131,4.221,5.56,1111122 
DISL,ioos:station:DISL:KATA:1,2014-05-01T00:30:00Z,30.2583,-88.2131,4.212,5.53,1111122 
DISL,ioos:station:DISL:KATA:1,2014-05-01T01:00:00Z,30.2583,-88.2131,4.154,5.46,1111122 
DISL,ioos:station:DISL:KATA:1,2014-05-01T01:30:00Z,30.2583,-88.2131,4.122,5.39,1111122 
DISL,ioos:station:DISL:KATA:1,2014-05-01T02:00:00Z,30.2583,-88.2131,4.156,5.31,1111122 
DISL,ioos:station:DISL:KATA:1,2014-05-01T02:30:00Z,30.2583,-88.2131,4.069,5.15,1111122 
DISL,ioos:station:DISL:KATA:1,2014-05-01T03:00:00Z,30.2583,-88.2131,4.203,5.09,1111122 
DISL,ioos:station:DISL:KATA:1,2014-05-01T03:30:00Z,30.2583,-88.2131,4.173,5.12,1111122 
DISL,ioos:station:DISL:KATA:1,2014-05-01T04:00:00Z,30.2583,-88.2131,4.111,5.34,1111122 
DISL,ioos:station:DISL:KATA:1,2014-05-01T04:30:00Z,30.2583,-88.2131,4.129,5.14,1111122 
DISL,ioos:station:DISL:KATA:1,2014-05-01T05:00:00Z,30.2583,-88.2131,4.124,5.09,1111122 
DISL,ioos:station:DISL:KATA:1,2014-05-01T05:30:00Z,30.2583,-88.2131,4.124,5.12,1111122 
DISL,ioos:station:DISL:KATA:1,2014-05-01T06:00:00Z,30.2583,-88.2131,4.155,5.14,1111122 
DISL,ioos:station:DISL:KATA:1,2014-05-01T06:30:00Z,30.2583,-88.2131,4.166,5.06,1111122 
DISL,ioos:station:DISL:KATA:1,2014-05-01T07:00:00Z,30.2583,-88.2131,4.167,5.15,1111122 
DISL,ioos:station:DISL:KATA:1,2014-05-01T07:30:00Z,30.2583,-88.2131,4.176,5.01,1111122 
DISL,ioos:station:DISL:KATA:1,2014-05-01T08:00:00Z,30.2583,-88.2131,4.179,4.6,1111122 
DISL,ioos:station:DISL:KATA:1,2014-05-01T08:30:00Z,30.2583,-88.2131,4.165,3.96,1111122 
DISL,ioos:station:DISL:KATA:1,2014-05-01T09:00:00Z,30.2583,-88.2131,4.157,3.64,1111122 
DISL,ioos:station:DISL:KATA:1,2014-05-01T09:30:00Z,30.2583,-88.2131,4.161,3.35,1111122 
DISL,ioos:station:DISL:KATA:1,2014-05-01T10:00:00Z,30.2583,-88.2131,4.173,3.24,1111122 
DISL,ioos:station:DISL:KATA:1,2014-05-01T10:30:00Z,30.2583,-88.2131,4.215,3.3,1111122 
DISL,ioos:station:DISL:KATA:1,2014-05-01T11:00:00Z,30.2583,-88.2131,4.255,3.52,1111122 
DISL,ioos:station:DISL:KATA:1,2014-05-01T11:30:00Z,30.2583,-88.2131,4.275,3.62,1111122 
DISL,ioos:station:DISL:KATA:1,2014-05-01T12:00:00Z,30.2583,-88.2131,4.295,3.66,1111122 
DISL,ioos:station:DISL:KATA:1,2014-05-01T12:30:00Z,30.2583,-88.2131,4.3,3.58,1111122 
DISL,ioos:station:DISL:KATA:1,2014-05-01T13:00:00Z,30.2583,-88.2131,4.312,3.47,1111122 
DISL,ioos:station:DISL:KATA:1,2014-05-01T13:30:00Z,30.2583,-88.2131,4.35,3.24,1111122 
DISL,ioos:station:DISL:KATA:1,2014-05-01T14:00:00Z,30.2583,-88.2131,4.385,3.08,1111122 
DISL,ioos:station:DISL:KATA:1,2014-05-01T14:30:00Z,30.2583,-88.2131,4.443,3.57,1111122 
DISL,ioos:station:DISL:KATA:1,2014-05-01T15:00:00Z,30.2583,-88.2131,4.458,3.16,1111122 
DISL,ioos:station:DISL:KATA:1,2014-05-01T15:30:00Z,30.2583,-88.2131,4.503,3.4,1111122 
DISL,ioos:station:DISL:KATA:1,2014-05-01T16:00:00Z,30.2583,-88.2131,4.542,3.13,1111122 
DISL,ioos:station:DISL:KATA:1,2014-05-01T16:30:00Z,30.2583,-88.2131,4.552,3.34,1111122 
DISL,ioos:station:DISL:KATA:1,2014-05-01T17:00:00Z,30.2583,-88.2131,4.561,3.1,1111122 
DISL,ioos:station:DISL:KATA:1,2014-05-01T17:30:00Z,30.2583,-88.2131,4.538,3.36,1111122 
DISL,ioos:station:DISL:KATA:1,2014-05-01T18:00:00Z,30.2583,-88.2131,4.516,3.21,1111122 
DISL,ioos:station:DISL:KATA:1,2014-05-01T18:30:00Z,30.2583,-88.2131,4.498,2.88,1111122 
DISL,ioos:station:DISL:KATA:1,2014-05-01T19:00:00Z,30.2583,-88.2131,4.489,4.4,1111122 
DISL,ioos:station:DISL:KATA:1,2014-05-01T19:30:00Z,30.2583,-88.2131,4.461,2.86,1111122 
DISL,ioos:station:DISL:KATA:1,2014-05-01T20:00:00Z,30.2583,-88.2131,4.436,3.55,1111122 
DISL,ioos:station:DISL:KATA:1,2014-05-01T20:30:00Z,30.2583,-88.2131,4.403,2.46,1111122 
DISL,ioos:station:DISL:KATA:1,2014-05-01T21:00:00Z,30.2583,-88.2131,4.375,2.38,1111122 
DISL,ioos:station:DISL:KATA:1,2014-05-01T21:30:00Z,30.2583,-88.2131,4.348,2.71,1111122 
DISL,ioos:station:DISL:KATA:1,2014-05-01T22:00:00Z,30.2583,-88.2131,4.309,2.49,1111122 
DISL,ioos:station:DISL:KATA:1,2014-05-01T22:30:00Z,30.2583,-88.2131,4.252,2.02,1111122 
DISL,ioos:station:DISL:KATA:1,2014-05-01T23:00:00Z,30.2583,-88.2131,4.215,1.85,1111122 
DISL,ioos:station:DISL:KATA:1,2014-05-01T23:30:00Z,30.2583,-88.2131,4.148,1.74,1111122 
DISL,ioos:station:DISL:KATA:1,2014-05-02T00:00:00Z,30.2583,-88.2131,4.109,1.55,1111122 
DISL,ioos:station:DISL:KATA:1,2014-05-02T00:30:00Z,30.2583,-88.2131,4.074,1.72,1111122 
DISL,ioos:station:DISL:KATA:1,2014-05-02T01:00:00Z,30.2583,-88.2131,4.051,1.5,1111122 
DISL,ioos:station:DISL:KATA:1,2014-05-02T01:30:00Z,30.2583,-88.2131,4.03,1.86,1111122 
DISL,ioos:station:DISL:KATA:1,2014-05-02T02:00:00Z,30.2583,-88.2131,4.026,1.35,1111122 
DISL,ioos:station:DISL:KATA:1,2014-05-02T02:30:00Z,30.2583,-88.2131,4.03,1.17,1111122 
DISL,ioos:station:DISL:KATA:1,2014-05-02T03:00:00Z,30.2583,-88.2131,4.024,1.17,1111122 
DISL,ioos:station:DISL:KATA:1,2014-05-02T03:30:00Z,30.2583,-88.2131,4.031,1.62,1111122 
DISL,ioos:station:DISL:KATA:1,2014-05-02T04:00:00Z,30.2583,-88.2131,4.028,1.42,1111122 
DISL,ioos:station:DISL:KATA:1,2014-05-02T04:30:00Z,30.2583,-88.2131,4.02,1.31,1111122 
DISL,ioos:station:DISL:KATA:1,2014-05-02T05:00:00Z,30.2583,-88.2131,4.023,1.1,1111122 
DISL,ioos:station:DISL:KATA:1,2014-05-02T05:30:00Z,30.2583,-88.2131,4.011,1.18,1111122 
DISL,ioos:station:DISL:KATA:1,2014-05-02T06:00:00Z,30.2583,-88.2131,4.019,1.19,1111122 
DISL,ioos:station:DISL:KATA:1,2014-05-02T06:30:00Z,30.2583,-88.2131,4.038,0.91,1111122 
DISL,ioos:station:DISL:KATA:1,2014-05-02T07:00:00Z,30.2583,-88.2131,4.071,1.64,1111122 
DISL,ioos:station:DISL:KATA:1,2014-05-02T07:30:00Z,30.2583,-88.2131,4.116,2.88,1111122 
DISL,ioos:station:DISL:KATA:1,2014-05-02T08:00:00Z,30.2583,-88.2131,4.164,3.08,1111122 
DISL,ioos:station:DISL:KATA:1,2014-05-02T08:30:00Z,30.2583,-88.2131,4.185,3.1,1111122 
DISL,ioos:station:DISL:KATA:1,2014-05-02T09:00:00Z,30.2583,-88.2131,4.199,5.19,1111122 
DISL,ioos:station:DISL:KATA:1,2014-05-02T09:30:00Z,30.2583,-88.2131,4.21,4.79,1111122 
DISL,ioos:station:DISL:KATA:1,2014-05-02T10:00:00Z,30.2583,-88.2131,4.215,5.07,1111122 
DISL,ioos:station:DISL:KATA:1,2014-05-02T10:30:00Z,30.2583,-88.2131,4.227,5.3,1111122 
DISL,ioos:station:DISL:KATA:1,2014-05-02T11:00:00Z,30.2583,-88.2131,4.255,5.37,1111122 
DISL,ioos:station:DISL:KATA:1,2014-05-02T11:30:00Z,30.2583,-88.2131,4.278,5.48,1111122 
DISL,ioos:station:DISL:KATA:1,2014-05-02T12:00:00Z,30.2583,-88.2131,4.294,5.45,1111122 
DISL,ioos:station:DISL:KATA:1,2014-05-02T12:30:00Z,30.2583,-88.2131,4.362,5.37,1111122 
DISL,ioos:station:DISL:KATA:1,2014-05-02T13:00:00Z,30.2583,-88.2131,4.393,5.34,1111122 
DISL,ioos:station:DISL:KATA:1,2014-05-02T13:30:00Z,30.2583,-88.2131,4.425,5.13,1111122 
DISL,ioos:station:DISL:KATA:1,2014-05-02T14:00:00Z,30.2583,-88.2131,4.449,4.55,1111122 
DISL,ioos:station:DISL:KATA:1,2014-05-02T14:30:00Z,30.2583,-88.2131,4.485,4.14,1111122 
DISL,ioos:station:DISL:KATA:1,2014-05-02T15:00:00Z,30.2583,-88.2131,4.496,4.19,1111122 
DISL,ioos:station:DISL:KATA:1,2014-05-02T15:30:00Z,30.2583,-88.2131,4.52,4.67,1111122 
DISL,ioos:station:DISL:KATA:1,2014-05-02T16:00:00Z,30.2583,-88.2131,4.539,4.54,1111122 
DISL,ioos:station:DISL:KATA:1,2014-05-02T16:30:00Z,30.2583,-88.2131,4.56,4.67,1111122 
DISL,ioos:station:DISL:KATA:1,2014-05-02T17:00:00Z,30.2583,-88.2131,4.555,4.7,1111122 
DISL,ioos:station:DISL:KATA:1,2014-05-02T17:30:00Z,30.2583,-88.2131,4.563,4.84,1111122 
DISL,ioos:station:DISL:KATA:1,2014-05-02T18:00:00Z,30.2583,-88.2131,4.537,4.83,1111122 
DISL,ioos:station:DISL:KATA:1,2014-05-02T18:30:00Z,30.2583,-88.2131,4.512,4.88,1111122 
DISL,ioos:station:DISL:KATA:1,2014-05-02T19:00:00Z,30.2583,-88.2131,4.482,4.83,1111122 
DISL,ioos:station:DISL:KATA:1,2014-05-02T19:30:00Z,30.2583,-88.2131,4.466,4.71,1111122 
DISL,ioos:station:DISL:KATA:1,2014-05-02T20:00:00Z,30.2583,-88.2131,4.46,4.32,1111122 
DISL,ioos:station:DISL:KATA:1,2014-05-02T20:30:00Z,30.2583,-88.2131,4.433,3.95,1111122 
DISL,ioos:station:DISL:KATA:1,2014-05-02T21:00:00Z,30.2583,-88.2131,4.423,4.59,1111122 
DISL,ioos:station:DISL:KATA:1,2014-05-02T21:30:00Z,30.2583,-88.2131,4.383,4.28,1111122 
DISL,ioos:station:DISL:KATA:1,2014-05-02T22:00:00Z,30.2583,-88.2131,4.34,4.41,1111122 
DISL,ioos:station:DISL:KATA:1,2014-05-02T22:30:00Z,30.2583,-88.2131,4.305,4.51,1111122 
DISL,ioos:station:DISL:KATA:1,2014-05-02T23:00:00Z,30.2583,-88.2131,4.246,4.43,1111122 
DISL,ioos:station:DISL:KATA:1,2014-05-02T23:30:00Z,30.2583,-88.2131,4.218,4.02,1111122 
DISL,ioos:station:DISL:KATA:1,2014-05-03T00:00:00Z,30.2583,-88.2131,4.164,4.12,1111122 
DISL,ioos:station:DISL:KATA:1,2014-05-03T00:30:00Z,30.2583,-88.2131,4.132,3.32,1111122 
DISL,ioos:station:DISL:KATA:1,2014-05-03T01:00:00Z,30.2583,-88.2131,4.127,3.16,1111122 
DISL,ioos:station:DISL:KATA:1,2014-05-03T01:30:00Z,30.2583,-88.2131,4.112,3.73,1111122 
DISL,ioos:station:DISL:KATA:1,2014-05-03T02:00:00Z,30.2583,-88.2131,4.104,3.85,1111122 
DISL,ioos:station:DISL:KATA:1,2014-05-03T02:30:00Z,30.2583,-88.2131,4.084,3.85,1111122 
DISL,ioos:station:DISL:KATA:1,2014-05-03T03:00:00Z,30.2583,-88.2131,4.07,4.16,1111122 
DISL,ioos:station:DISL:KATA:1,2014-05-03T03:30:00Z,30.2583,-88.2131,4.051,4.05,1111122 
DISL,ioos:station:DISL:KATA:1,2014-05-03T04:00:00Z,30.2583,-88.2131,4.04,4.25,1111122 
DISL,ioos:station:DISL:KATA:1,2014-05-03T04:30:00Z,30.2583,-88.2131,4.017,3.9,1111122 
DISL,ioos:station:DISL:KATA:1,2014-05-03T05:00:00Z,30.2583,-88.2131,4.027,4.02,1111122 
DISL,ioos:station:DISL:KATA:1,2014-05-03T05:30:00Z,30.2583,-88.2131,4.028,4.16,1111122 
DISL,ioos:station:DISL:KATA:1,2014-05-03T06:00:00Z,30.2583,-88.2131,4.053,4.44,1111122 
DISL,ioos:station:DISL:KATA:1,2014-05-03T06:30:00Z,30.2583,-88.2131,4.097,4.39,1111122 
DISL,ioos:station:DISL:KATA:1,2014-05-03T07:00:00Z,30.2583,-88.2131,4.12,4.53,1111122 
DISL,ioos:station:DISL:KATA:1,2014-05-03T07:30:00Z,30.2583,-88.2131,4.142,4.39,1111122 
DISL,ioos:station:DISL:KATA:1,2014-05-03T08:00:00Z,30.2583,-88.2131,4.153,4.39,1111122 
DISL,ioos:station:DISL:KATA:1,2014-05-03T08:30:00Z,30.2583,-88.2131,4.161,4.37,1111122 
DISL,ioos:station:DISL:KATA:1,2014-05-03T09:00:00Z,30.2583,-88.2131,4.179,4.23,1111122 
DISL,ioos:station:DISL:KATA:1,2014-05-03T09:30:00Z,30.2583,-88.2131,4.202,4.23,1111122 
DISL,ioos:station:DISL:KATA:1,2014-05-03T10:00:00Z,30.2583,-88.2131,4.223,4.19,1111122 
DISL,ioos:station:DISL:KATA:1,2014-05-03T10:30:00Z,30.2583,-88.2131,4.244,4.22,1111122 
DISL,ioos:station:DISL:KATA:1,2014-05-03T11:00:00Z,30.2583,-88.2131,4.279,4.2,1111122 
DISL,ioos:station:DISL:KATA:1,2014-05-03T11:30:00Z,30.2583,-88.2131,4.302,4.13,1111122 
DISL,ioos:station:DISL:KATA:1,2014-05-03T12:00:00Z,30.2583,-88.2131,4.325,4.07,1111122 
DISL,ioos:station:DISL:KATA:1,2014-05-03T12:30:00Z,30.2583,-88.2131,4.344,4.1,1111122 
DISL,ioos:station:DISL:KATA:1,2014-05-03T13:00:00Z,30.2583,-88.2131,4.377,4.15,1111122 
DISL,ioos:station:DISL:KATA:1,2014-05-03T13:30:00Z,30.2583,-88.2131,4.397,3.75,1111122 
DISL,ioos:station:DISL:KATA:1,2014-05-03T14:00:00Z,30.2583,-88.2131,4.437,3.99,1111122 
DISL,ioos:station:DISL:KATA:1,2014-05-03T14:30:00Z,30.2583,-88.2131,4.457,3.91,1111122 
DISL,ioos:station:DISL:KATA:1,2014-05-03T15:00:00Z,30.2583,-88.2131,4.472,3.68,1111122 
DISL,ioos:station:DISL:KATA:1,2014-05-03T15:30:00Z,30.2583,-88.2131,4.493,3.78,1111122 
DISL,ioos:station:DISL:KATA:1,2014-05-03T16:00:00Z,30.2583,-88.2131,4.494,2.97,1111122 
DISL,ioos:station:DISL:KATA:1,2014-05-03T16:30:00Z,30.2583,-88.2131,4.495,2.84,1111122 
DISL,ioos:station:DISL:KATA:1,2014-05-03T17:00:00Z,30.2583,-88.2131,4.488,3.11,1111122 
DISL,ioos:station:DISL:KATA:1,2014-05-03T17:30:00Z,30.2583,-88.2131,4.483,2.85,1111122 
DISL,ioos:station:DISL:KATA:1,2014-05-03T18:00:00Z,30.2583,-88.2131,4.48,3.15,1111122 
DISL,ioos:station:DISL:KATA:1,2014-05-03T18:30:00Z,30.2583,-88.2131,4.469,3.09,1111122 
DISL,ioos:station:DISL:KATA:1,2014-05-03T19:00:00Z,30.2583,-88.2131,4.462,2.76,1111122 
DISL,ioos:station:DISL:KATA:1,2014-05-03T19:30:00Z,30.2583,-88.2131,4.454,2.85,1111122 
DISL,ioos:station:DISL:KATA:1,2014-05-03T20:00:00Z,30.2583,-88.2131,4.427,3.05,1111122 
DISL,ioos:station:DISL:KATA:1,2014-05-03T20:30:00Z,30.2583,-88.2131,4.424,3.03,1111122 
DISL,ioos:station:DISL:KATA:1,2014-05-03T21:00:00Z,30.2583,-88.2131,4.41,3.2,1111122 
DISL,ioos:station:DISL:KATA:1,2014-05-03T21:30:00Z,30.2583,-88.2131,4.374,3.91,1111122 
DISL,ioos:station:DISL:KATA:1,2014-05-03T22:00:00Z,30.2583,-88.2131,4.355,4.11,1111122 
DISL,ioos:station:DISL:KATA:1,2014-05-03T22:30:00Z,30.2583,-88.2131,4.328,3.95,1111122 
DISL,ioos:station:DISL:KATA:1,2014-05-03T23:00:00Z,30.2583,-88.2131,4.289,3.94,1111122 
DISL,ioos:station:DISL:KATA:1,2014-05-03T23:30:00Z,30.2583,-88.2131,4.248,3.74,1111122 
DISL,ioos:station:DISL:KATA:1,2014-05-04T00:00:00Z,30.2583,-88.2131,4.197,3.88,1111122 
DISL,ioos:station:DISL:KATA:1,2014-05-04T00:30:00Z,30.2583,-88.2131,4.156,3.79,1111122 
DISL,ioos:station:DISL:KATA:1,2014-05-04T01:00:00Z,30.2583,-88.2131,4.129,3.56,1111122 
DISL,ioos:station:DISL:KATA:1,2014-05-04T01:30:00Z,30.2583,-88.2131,4.102,3.46,1111122 
DISL,ioos:station:DISL:KATA:1,2014-05-04T02:00:00Z,30.2583,-88.2131,4.077,3.38,1111122 
DISL,ioos:station:DISL:KATA:1,2014-05-04T02:30:00Z,30.2583,-88.2131,4.059,3.39,1111122 
DISL,ioos:station:DISL:KATA:1,2014-05-04T03:00:00Z,30.2583,-88.2131,4.057,3.03,1111122 
DISL,ioos:station:DISL:KATA:1,2014-05-04T03:30:00Z,30.2583,-88.2131,4.04,2.89,1111122 
DISL,ioos:station:DISL:KATA:1,2014-05-04T04:00:00Z,30.2583,-88.2131,4.019,2.68,1111122 
DISL,ioos:station:DISL:KATA:1,2014-05-04T04:30:00Z,30.2583,-88.2131,4.002,2.59,1111122 
DISL,ioos:station:DISL:KATA:1,2014-05-04T05:00:00Z,30.2583,-88.2131,3.991,2.43,1111122 
DISL,ioos:station:DISL:KATA:1,2014-05-04T05:30:00Z,30.2583,-88.2131,3.971,2.31,1111122 
DISL,ioos:station:DISL:KATA:1,2014-05-04T06:00:00Z,30.2583,-88.2131,3.962,2.17,1111122 
DISL,ioos:station:DISL:KATA:1,2014-05-04T06:30:00Z,30.2583,-88.2131,3.962,2.58,1111122 
DISL,ioos:station:DISL:KATA:1,2014-05-04T07:00:00Z,30.2583,-88.2131,3.973,2.17,1111122 
DISL,ioos:station:DISL:KATA:1,2014-05-04T07:30:00Z,30.2583,-88.2131,4.0,2.21,1111122 
DISL,ioos:station:DISL:KATA:1,2014-05-04T08:00:00Z,30.2583,-88.2131,4.038,2.19,1111122 
DISL,ioos:station:DISL:KATA:1,2014-05-04T08:30:00Z,30.2583,-88.2131,4.049,2.07,1111122 
DISL,ioos:station:DISL:KATA:1,2014-05-04T09:00:00Z,30.2583,-88.2131,4.059,2.17,1111122 
DISL,ioos:station:DISL:KATA:1,2014-05-04T09:30:00Z,30.2583,-88.2131,4.068,2.24,1111122 
DISL,ioos:station:DISL:KATA:1,2014-05-04T10:00:00Z,30.2583,-88.2131,4.08,2.43,1111122 
DISL,ioos:station:DISL:KATA:1,2014-05-04T10:30:00Z,30.2583,-88.2131,4.095,2.12,1111122 
DISL,ioos:station:DISL:KATA:1,2014-05-04T11:00:00Z,30.2583,-88.2131,4.104,2.36,1111122 
DISL,ioos:station:DISL:KATA:1,2014-05-04T11:30:00Z,30.2583,-88.2131,4.137,2.35,1111122 
DISL,ioos:station:DISL:KATA:1,2014-05-04T12:00:00Z,30.2583,-88.2131,4.16,2.27,1111122 
DISL,ioos:station:DISL:KATA:1,2014-05-04T12:30:00Z,30.2583,-88.2131,4.194,2.22,1111122 
DISL,ioos:station:DISL:KATA:1,2014-05-04T13:00:00Z,30.2583,-88.2131,4.219,2.32,1111122 
DISL,ioos:station:DISL:KATA:1,2014-05-04T13:30:00Z,30.2583,-88.2131,4.238,2.21,1111122 
DISL,ioos:station:DISL:KATA:1,2014-05-04T14:00:00Z,30.2583,-88.2131,4.257,2.1,1111122 
DISL,ioos:station:DISL:KATA:1,2014-05-04T14:30:00Z,30.2583,-88.2131,4.269,1.95,1111122 
DISL,ioos:station:DISL:KATA:1,2014-05-04T15:00:00Z,30.2583,-88.2131,4.284,1.98,1111122 
DISL,ioos:station:DISL:KATA:1,2014-05-04T15:30:00Z,30.2583,-88.2131,4.3,2.19,1111122 
DISL,ioos:station:DISL:KATA:1,2014-05-04T16:00:00Z,30.2583,-88.2131,4.32,1.68,1111122 
DISL,ioos:station:DISL:KATA:1,2014-05-04T16:30:00Z,30.2583,-88.2131,4.336,1.53,1111122 
DISL,ioos:station:DISL:KATA:1,2014-05-04T17:00:00Z,30.2583,-88.2131,4.348,1.85,1111122 
DISL,ioos:station:DISL:KATA:1,2014-05-04T17:30:00Z,30.2583,-88.2131,4.355,1.93,1111122 
DISL,ioos:station:DISL:KATA:1,2014-05-04T18:00:00Z,30.2583,-88.2131,4.358,1.75,1111122 
DISL,ioos:station:DISL:KATA:1,2014-05-04T18:30:00Z,30.2583,-88.2131,4.351,1.78,1111122 
DISL,ioos:station:DISL:KATA:1,2014-05-04T19:00:00Z,30.2583,-88.2131,4.348,1.96,1111122 
DISL,ioos:station:DISL:KATA:1,2014-05-04T19:30:00Z,30.2583,-88.2131,4.335,1.84,1111122 
DISL,ioos:station:DISL:KATA:1,2014-05-04T20:00:00Z,30.2583,-88.2131,4.328,1.48,1111122 
DISL,ioos:station:DISL:KATA:1,2014-05-04T20:30:00Z,30.2583,-88.2131,4.312,1.74,1111122 
DISL,ioos:station:DISL:KATA:1,2014-05-04T21:00:00Z,30.2583,-88.2131,4.299,1.7,1111122 
DISL,ioos:station:DISL:KATA:1,2014-05-04T21:30:00Z,30.2583,-88.2131,4.282,1.31,1111122 
DISL,ioos:station:DISL:KATA:1,2014-05-04T22:00:00Z,30.2583,-88.2131,4.264,1.41,1111122 
DISL,ioos:station:DISL:KATA:1,2014-05-04T22:30:00Z,30.2583,-88.2131,4.24,1.46,1111122 
DISL,ioos:station:DISL:KATA:1,2014-05-04T23:00:00Z,30.2583,-88.2131,4.213,1.2,1111122 
DISL,ioos:station:DISL:KATA:1,2014-05-04T23:30:00Z,30.2583,-88.2131,4.181,1.07,1111122 
DISL,ioos:station:DISL:KATA:1,2014-05-05T00:00:00Z,30.2583,-88.2131,4.153,1.05,1111122 
DISL,ioos:station:DISL:KATA:1,2014-05-05T00:30:00Z,30.2583,-88.2131,4.122,0.98,1111122 
DISL,ioos:station:DISL:KATA:1,2014-05-05T01:00:00Z,30.2583,-88.2131,4.099,1.17,1111122 
DISL,ioos:station:DISL:KATA:1,2014-05-05T01:30:00Z,30.2583,-88.2131,4.074,0.92,1111122 
DISL,ioos:station:DISL:KATA:1,2014-05-05T02:00:00Z,30.2583,-88.2131,4.047,0.89,1111122 
DISL,ioos:station:DISL:KATA:1,2014-05-05T02:30:00Z,30.2583,-88.2131,4.027,0.58,1111122 
DISL,ioos:station:DISL:KATA:1,2014-05-05T03:00:00Z,30.2583,-88.2131,4.007,0.64,1111122 
DISL,ioos:station:DISL:KATA:1,2014-05-05T03:30:00Z,30.2583,-88.2131,3.993,0.75,1111122 
DISL,ioos:station:DISL:KATA:1,2014-05-05T04:00:00Z,30.2583,-88.2131,3.977,0.67,1111122 
DISL,ioos:station:DISL:KATA:1,2014-05-05T04:30:00Z,30.2583,-88.2131,3.963,0.62,1111122 
DISL,ioos:station:DISL:KATA:1,2014-05-05T05:00:00Z,30.2583,-88.2131,3.959,0.63,1111122 
DISL,ioos:station:DISL:KATA:1,2014-05-05T05:30:00Z,30.2583,-88.2131,3.958,0.54,1111122 
DISL,ioos:station:DISL:KATA:1,2014-05-05T06:00:00Z,30.2583,-88.2131,3.955,0.46,1111122 
DISL,ioos:station:DISL:KATA:1,2014-05-05T06:30:00Z,30.2583,-88.2131,3.952,0.42,1111122 
DISL,ioos:station:DISL:KATA:1,2014-05-05T07:00:00Z,30.2583,-88.2131,3.956,0.41,1111122 
DISL,ioos:station:DISL:KATA:1,2014-05-05T07:30:00Z,30.2583,-88.2131,3.966,0.48,1111122 
DISL,ioos:station:DISL:KATA:1,2014-05-05T08:00:00Z,30.2583,-88.2131,3.981,0.49,1111122 
DISL,ioos:station:DISL:KATA:1,2014-05-05T08:30:00Z,30.2583,-88.2131,3.992,0.47,1111122 
DISL,ioos:station:DISL:KATA:1,2014-05-05T09:00:00Z,30.2583,-88.2131,4.015,0.52,1111122 
DISL,ioos:station:DISL:KATA:1,2014-05-05T09:30:00Z,30.2583,-88.2131,4.023,0.68,1111122 
DISL,ioos:station:DISL:KATA:1,2014-05-05T10:00:00Z,30.2583,-88.2131,4.045,0.95,1111122 
DISL,ioos:station:DISL:KATA:1,2014-05-05T10:30:00Z,30.2583,-88.2131,4.066,1.13,1111122 
DISL,ioos:station:DISL:KATA:1,2014-05-05T11:00:00Z,30.2583,-88.2131,4.084,0.73,1111122 
DISL,ioos:station:DISL:KATA:1,2014-05-05T11:30:00Z,30.2583,-88.2131,4.113,0.93,1111122 
DISL,ioos:station:DISL:KATA:1,2014-05-05T12:00:00Z,30.2583,-88.2131,4.143,0.86,1111122 
DISL,ioos:station:DISL:KATA:1,2014-05-05T12:30:00Z,30.2583,-88.2131,4.173,1.14,1111122 
DISL,ioos:station:DISL:KATA:1,2014-05-05T13:00:00Z,30.2583,-88.2131,4.201,0.92,1111122 
DISL,ioos:station:DISL:KATA:1,2014-05-05T13:30:00Z,30.2583,-88.2131,4.223,1.11,1111122 
DISL,ioos:station:DISL:KATA:1,2014-05-05T14:00:00Z,30.2583,-88.2131,4.24,1.37,1111122 
DISL,ioos:station:DISL:KATA:1,2014-05-05T14:30:00Z,30.2583,-88.2131,4.255,1.34,1111122 
DISL,ioos:station:DISL:KATA:1,2014-05-05T15:00:00Z,30.2583,-88.2131,4.265,1.41,1111122 
DISL,ioos:station:DISL:KATA:1,2014-05-05T15:30:00Z,30.2583,-88.2131,4.281,1.9,1111122 
DISL,ioos:station:DISL:KATA:1,2014-05-05T16:00:00Z,30.2583,-88.2131,4.295,2.11,1111122 
DISL,ioos:station:DISL:KATA:1,2014-05-05T16:30:00Z,30.2583,-88.2131,4.312,2.68,1111122 
DISL,ioos:station:DISL:KATA:1,2014-05-05T17:00:00Z,30.2583,-88.2131,4.327,3.07,1111122 
DISL,ioos:station:DISL:KATA:1,2014-05-05T17:30:00Z,30.2583,-88.2131,4.342,2.89,1111122 
DISL,ioos:station:DISL:KATA:1,2014-05-05T18:00:00Z,30.2583,-88.2131,4.364,3.64,1111122 
DISL,ioos:station:DISL:KATA:1,2014-05-05T18:30:00Z,30.2583,-88.2131,4.366,3.57,1111122 
DISL,ioos:station:DISL:KATA:1,2014-05-05T19:00:00Z,30.2583,-88.2131,4.366,2.87,1111122 
DISL,ioos:station:DISL:KATA:1,2014-05-05T19:30:00Z,30.2583,-88.2131,4.362,2.04,1111122 
DISL,ioos:station:DISL:KATA:1,2014-05-05T20:00:00Z,30.2583,-88.2131,4.349,2.28,1111122 
DISL,ioos:station:DISL:KATA:1,2014-05-05T20:30:00Z,30.2583,-88.2131,4.34,1.79,1111122 
DISL,ioos:station:DISL:KATA:1,2014-05-05T21:00:00Z,30.2583,-88.2131,4.328,1.69,1111122 
DISL,ioos:station:DISL:KATA:1,2014-05-05T21:30:00Z,30.2583,-88.2131,4.322,1.79,1111122 
DISL,ioos:station:DISL:KATA:1,2014-05-05T22:00:00Z,30.2583,-88.2131,4.306,1.8,1111122 
DISL,ioos:station:DISL:KATA:1,2014-05-05T22:30:00Z,30.2583,-88.2131,4.29,1.82,1111122 
DISL,ioos:station:DISL:KATA:1,2014-05-05T23:00:00Z,30.2583,-88.2131,4.269,1.83,1111122 
DISL,ioos:station:DISL:KATA:1,2014-05-05T23:30:00Z,30.2583,-88.2131,4.245,2.0,1111122 
DISL,ioos:station:DISL:KATA:1,2014-05-06T00:00:00Z,30.2583,-88.2131,4.22,2.21,1111122 
DISL,ioos:station:DISL:KATA:1,2014-05-06T00:30:00Z,30.2583,-88.2131,4.196,2.46,1111122 
DISL,ioos:station:DISL:KATA:1,2014-05-06T01:00:00Z,30.2583,-88.2131,4.17,2.88,1111122 
DISL,ioos:station:DISL:KATA:1,2014-05-06T01:30:00Z,30.2583,-88.2131,4.145,3.58,1111122 
DISL,ioos:station:DISL:KATA:1,2014-05-06T02:00:00Z,30.2583,-88.2131,4.123,3.35,1111122 
DISL,ioos:station:DISL:KATA:1,2014-05-06T02:30:00Z,30.2583,-88.2131,4.098,3.69,1111122 
DISL,ioos:station:DISL:KATA:1,2014-05-06T03:00:00Z,30.2583,-88.2131,4.076,3.62,1111122 
DISL,ioos:station:DISL:KATA:1,2014-05-06T03:30:00Z,30.2583,-88.2131,4.058,3.0,1111122 
DISL,ioos:station:DISL:KATA:1,2014-05-06T04:00:00Z,30.2583,-88.2131,4.056,2.99,1111122 
DISL,ioos:station:DISL:KATA:1,2014-05-06T04:30:00Z,30.2583,-88.2131,4.054,2.66,1111122 
DISL,ioos:station:DISL:KATA:1,2014-05-06T05:00:00Z,30.2583,-88.2131,4.056,2.78,1111122 
DISL,ioos:station:DISL:KATA:1,2014-05-06T05:30:00Z,30.2583,-88.2131,4.061,2.76,1111122 
DISL,ioos:station:DISL:KATA:1,2014-05-06T06:00:00Z,30.2583,-88.2131,4.068,2.94,1111122 
DISL,ioos:station:DISL:KATA:1,2014-05-06T06:30:00Z,30.2583,-88.2131,4.072,2.58,1111122 
DISL,ioos:station:DISL:KATA:1,2014-05-06T07:00:00Z,30.2583,-88.2131,4.073,2.72,1111122 
DISL,ioos:station:DISL:KATA:1,2014-05-06T07:30:00Z,30.2583,-88.2131,4.078,2.61,1111122 
DISL,ioos:station:DISL:KATA:1,2014-05-06T08:00:00Z,30.2583,-88.2131,4.082,2.63,1111122 
DISL,ioos:station:DISL:KATA:1,2014-05-06T08:30:00Z,30.2583,-88.2131,4.093,2.46,1111122 
DISL,ioos:station:DISL:KATA:1,2014-05-06T09:00:00Z,30.2583,-88.2131,4.108,2.44,1111122 
DISL,ioos:station:DISL:KATA:1,2014-05-06T09:30:00Z,30.2583,-88.2131,4.127,2.28,1111122 
DISL,ioos:station:DISL:KATA:1,2014-05-06T10:00:00Z,30.2583,-88.2131,4.153,2.34,1111122 
DISL,ioos:station:DISL:KATA:1,2014-05-06T10:30:00Z,30.2583,-88.2131,4.177,2.38,1111122 
DISL,ioos:station:DISL:KATA:1,2014-05-06T11:00:00Z,30.2583,-88.2131,4.203,2.48,1111122 
DISL,ioos:station:DISL:KATA:1,2014-05-06T11:30:00Z,30.2583,-88.2131,4.22,2.66,1111122 
DISL,ioos:station:DISL:KATA:1,2014-05-06T12:00:00Z,30.2583,-88.2131,4.234,2.65,1111122 
DISL,ioos:station:DISL:KATA:1,2014-05-06T12:30:00Z,30.2583,-88.2131,4.251,2.91,1111122 
DISL,ioos:station:DISL:KATA:1,2014-05-06T13:00:00Z,30.2583,-88.2131,4.265,2.93,1111122 
DISL,ioos:station:DISL:KATA:1,2014-05-06T13:30:00Z,30.2583,-88.2131,4.275,2.82,1111122 
DISL,ioos:station:DISL:KATA:1,2014-05-06T14:00:00Z,30.2583,-88.2131,4.293,2.99,1111122 
DISL,ioos:station:DISL:KATA:1,2014-05-06T14:30:00Z,30.2583,-88.2131,4.307,2.68,1111122 
DISL,ioos:station:DISL:KATA:1,2014-05-06T15:00:00Z,30.2583,-88.2131,4.323,3.11,1111122 
DISL,ioos:station:DISL:KATA:1,2014-05-06T15:30:00Z,30.2583,-88.2131,4.332,2.54,1111122 